Regional Weather Roundup
Issued by NWS

Home | Current Version | Previous Version | Graphics & Text | Print | Product List | Glossary On
Versions: 1 2 3 4 5 6 7 8 9 10 11 12 13 14 15 16 17 18 19 20 21 22 23 24 25 26 27 28 29 30 31 32 33 34 35 36 37 38 39 40 41 42 43 44 45 46 47 48 49 50
000
ASUS45 KABQ 251301
RWRNM
NEW MEXICO REGIONAL WEATHER ROUNDUP
NATIONAL WEATHER SERVICE ALBUQUERQUE NM
700 AM MDT THU MAY 25 2017

NOTE: "FAIR" MEANS FEW OR NO CLOUDS BELOW 12,000 FEET AGL WITH NO
       SIGNIFICANT WEATHER OR OBSTRUCTIONS TO VISION.

      THIS PRODUCT IS RELEASED AS TWO VERSIONS.  ONE VERSION NEAR
      THE TOP OF THE HOUR CONTAINING PRELIMINARY DATA FROM ALBUQUERQUE
      AND OTHER STATIONS.  A FINAL VERSION WITH ADDITIONAL DATA IS
      ISSUED ABOUT 10 MINUTES AFTER THE HOUR.

NMZ501-503-504-510>518-251400-
NORTHWEST PLATEAU/NORTHCENTRAL MOUNTAINS

CITY           SKY/WX    TMP DP  RH WIND       PRES   REMARKS
FARMINGTON     FAIR      61  20  20 SW9       29.77R
LOS ALAMOS     FAIR      63  14  15 W24G37    29.88S
SANTA FE       FAIR      59  28  30 SW9       29.87R
TAOS           FAIR      52  27  37 E9        29.90S

$$
NMZ402-403-502-505>509-251400-
WESTCENTRAL MOUNTAINS/SOUTHWEST MOUNTAINS

CITY           SKY/WX    TMP DP  RH WIND       PRES   REMARKS
GALLUP         FAIR      56  25  30 CALM      29.92R
SILVER CITY    FAIR      56  24  29 NW9       29.94R

$$
NMZ407-409-411-412-251400-
SOUTHERN DESERTS

CITY           SKY/WX    TMP DP  RH WIND       PRES   REMARKS
DEMING         FAIR      60  24  25 W6        29.89R
LAS CRUCES     FAIR      68  21  16 W14       29.88R
HOLLOMAN AFB   FAIR      75  23  14 CALM      29.85R
T OR C         FAIR      68  22  17 W10       29.86R

$$
NMZ519>523-251400-
CENTRAL VALLEYS/CENTRAL HIGHLANDS

CITY           SKY/WX    TMP DP  RH WIND       PRES   REMARKS
ALBUQUERQUE    PTSUNNY   68  23  18 SW8       29.85R
DOUBLE EAGLE   PTSUNNY   63  27  25 SW15      29.86R
MORIARTY ARPT  FAIR      66  26  21 W16       29.88R
CLINES CORNERS FAIR      62  24  23 W18       29.92R
BELEN          FAIR      65  23  19 SW8       29.86R
SOCORRO        NOT AVBL

$$
NMZ524>526-539-540-251400-
SOUTHCENTRAL MOUNTAINS

CITY           SKY/WX    TMP DP  RH WIND       PRES   REMARKS
RUIDOSO        NOT AVBL

$$
NMZ527>531-251400-
NORTHEAST HIGHLANDS/NORTHEAST PLAINS

CITY           SKY/WX    TMP DP  RH WIND       PRES   REMARKS
LAS VEGAS      FAIR      58  31  35 SW3       29.87R
RATON          FAIR      60  32  34 SW9       29.79R
CLAYTON        FAIR      68  33  27 W16       29.67R

$$
NMZ532>537-251400-
EASTCENTRAL PLAINS

CITY           SKY/WX    TMP DP  RH WIND       PRES   REMARKS
SANTA ROSA     FAIR      64  28  25 W8        29.76R
TUCUMCARI      FAIR      66  35  31 W14       29.66R
CANNON AFB     FAIR      67  30  25 W13       29.73R
CLOVIS AIRPORT FAIR      66  36  32 W14       29.71R

$$
NMZ028-029-538-251400-
SOUTHEAST PLAINS

CITY           SKY/WX    TMP DP  RH WIND       PRES   REMARKS
ROSWELL        FAIR      67  25  20 S3        29.73R
ARTESIA        FAIR      72  25  17 VRB5      29.75R
CARLSBAD       FAIR      78  27  15 MISG      29.72R
HOBBS          SUNNY     63  41  45 S7        29.76R


$$



USA.gov is the U.S. government's official web portal to all federal, state and local government web resources and services.